Back to catalog

ARIANE 44LP DEB

LostGTO
NORAD 26808·DEBRIS·🇫🇷 France

Launched Dec 11, 1988 from Guiana Space Centre

Loading…

TLE

StaleSource: Space-Track

Epoch: Oct 30, 2025, 03:30 UTC

1 26808U 88109L   25303.14608014 -.00000090  00000-0 -97344-3 0  9998
2 26808   6.2305 108.8844 7218914 324.8065 312.6135  2.14409840 91479

Track ARIANE 44LP DEB in real time with AllMySat

Download on the App Store